• Em Portugal
  • Lista de países
  • Para 7 dias
  • Temperatura da água
  • Mapas de satélite
  • Mapa do tempo
  • Widgets de tempo
  • user-avatar
    Iniciar Sessão

    Previsão horária em Malanville

    Hoje, 22 Outubro, Segunda-feira

    Tempo Temperatura Precipitação Vento Pressão Humidade
    00:00 +29°C° 0 mm 2 m/s 742 mmHg 31%
    01:00 +28°C° 0 mm 2 m/s 742 mmHg 34%
    02:00 +28°C° 0 mm 1 m/s 741 mmHg 37%
    03:00 +27°C° 0 mm 1 m/s 741 mmHg 40%
    04:00 +27°C° 0 mm 1 m/s 741 mmHg 41%
    05:00 +26°C° 0 mm 1 m/s 742 mmHg 43%
    06:00 +26°C° 0 mm 1 m/s 742 mmHg 45%
    07:00 +29°C° 0 mm 1 m/s 742 mmHg 38%
    08:00 +33°C° 0 mm 1 m/s 743 mmHg 31%
    09:00 +36°C° 0 mm 1 m/s 743 mmHg 25%
    10:00 +39°C° 0 mm 1 m/s 743 mmHg 20%
    11:00 +40°C° 0 mm 2 m/s 742 mmHg 16%
    12:00 +43°C° 0 mm 3 m/s 742 mmHg 12%
    13:00 +43°C° 0 mm 3 m/s 741 mmHg 11%
    14:00 +44°C° 0 mm 3 m/s 740 mmHg 10%
    15:00 +44°C° 0 mm 4 m/s 740 mmHg 9%
    16:00 +40°C° 0 mm 3 m/s 740 mmHg 11%
    17:00 +37°C° 0 mm 2 m/s 740 mmHg 13%
    18:00 +33°C° 0 mm 1 m/s 740 mmHg 15%
    19:00 +32°C° 0 mm 1 m/s 741 mmHg 16%
    20:00 +32°C° 0 mm 1 m/s 741 mmHg 17%
    21:00 +31°C° 0 mm 1 m/s 742 mmHg 19%
    22:00 +30°C° 0 mm 1 m/s 742 mmHg 20%
    23:00 +30°C° 0 mm 1 m/s 742 mmHg 21%

    Amanhã, 23 Outubro, Terça-feira

    Tempo Temperatura Precipitação Vento Pressão Humidade
    00:00 +29°C° 0 mm 1 m/s 742 mmHg 22%
    01:00 +29°C° 0 mm 1 m/s 742 mmHg 23%
    02:00 +28°C° 0 mm 1 m/s 742 mmHg 24%
    03:00 +28°C° 0 mm 1 m/s 741 mmHg 25%
    04:00 +28°C° 0 mm 2 m/s 742 mmHg 28%
    05:00 +28°C° 0 mm 2 m/s 742 mmHg 32%
    06:00 +27°C° 0 mm 3 m/s 743 mmHg 35%
    07:00 +30°C° 0 mm 2 m/s 743 mmHg 33%
    08:00 +34°C° 0 mm 2 m/s 744 mmHg 32%
    09:00 +36°C° 0 mm 1 m/s 744 mmHg 30%
    10:00 +39°C° 0 mm 1 m/s 743 mmHg 24%
    11:00 +41°C° 0 mm 1 m/s 743 mmHg 19%
    12:00 +43°C° 0 mm 1 m/s 742 mmHg 13%
    13:00 +45°C° 0 mm 2 m/s 741 mmHg 12%
    14:00 +45°C° 0 mm 3 m/s 741 mmHg 11%
    15:00 +46°C° 0 mm 5 m/s 740 mmHg 10%
    16:00 +42°C° 0 mm 3 m/s 740 mmHg 12%
    17:00 +38°C° 0 mm 2 m/s 740 mmHg 14%
    18:00 +34°C° 0 mm 1 m/s 740 mmHg 17%
    19:00 +33°C° 0 mm 1 m/s 741 mmHg 17%
    20:00 +33°C° 0 mm 1 m/s 741 mmHg 18%
    21:00 +32°C° 0 mm 1 m/s 742 mmHg 19%
    22:00 +31°C° 0 mm 1 m/s 742 mmHg 19%
    23:00 +31°C° 0 mm 2 m/s 742 mmHg 20%

    Depois de amanhã, 24 Outubro, Quarta-feira

    Tempo Temperatura Precipitação Vento Pressão Humidade
    00:00 +30°C° 0 mm 2 m/s 742 mmHg 20%
    01:00 +30°C° 0 mm 2 m/s 741 mmHg 22%
    02:00 +29°C° 0 mm 2 m/s 741 mmHg 24%
    03:00 +28°C° 0 mm 2 m/s 741 mmHg 26%
    04:00 +28°C° 0 mm 2 m/s 741 mmHg 29%
    05:00 +28°C° 0 mm 2 m/s 741 mmHg 32%
    06:00 +28°C° 0 mm 3 m/s 742 mmHg 35%
    07:00 +30°C° 0 mm 3 m/s 742 mmHg 34%
    08:00 +34°C° 0 mm 2 m/s 743 mmHg 33%
    09:00 +37°C° 0 mm 2 m/s 743 mmHg 32%
    10:00 +39°C° 0 mm 2 m/s 743 mmHg 27%
    11:00 +41°C° 0 mm 1 m/s 742 mmHg 23%
    12:00 +43°C° 0 mm 1 m/s 742 mmHg 18%
    13:00 +43°C° 0 mm 2 m/s 741 mmHg 16%
    14:00 +43°C° 0 mm 2 m/s 740 mmHg 15%
    15:00 +45°C° 0 mm 2 m/s 739 mmHg 13%
    16:00 +41°C° 0 mm 2 m/s 739 mmHg 15%
    17:00 +39°C° 0 mm 2 m/s 740 mmHg 18%
    18:00 +37°C° 0 mm 3 m/s 740 mmHg 21%
    19:00 +36°C° 0 mm 3 m/s 740 mmHg 24%
    20:00 +35°C° 0 mm 3 m/s 741 mmHg 27%
    21:00 +34°C° 0 mm 3 m/s 742 mmHg 31%
    22:00 +34°C° 0 mm 3 m/s 742 mmHg 35%
    23:00 +33°C° 0 mm 3 m/s 742 mmHg 38%

    25 Outubro, Quinta-feira

    Tempo Temperatura Precipitação Vento Pressão Humidade
    00:00 +33°C° 0 mm 4 m/s 742 mmHg 42%
    01:00 +31°C° 0 mm 3 m/s 741 mmHg 48%
    02:00 +30°C° 0 mm 3 m/s 741 mmHg 55%
    03:00 +30°C° 0 mm 3 m/s 741 mmHg 61%
    04:00 +29°C° 0 mm 3 m/s 741 mmHg 65%
    05:00 +29°C° 0 mm 4 m/s 741 mmHg 70%
    06:00 +28°C° 0 mm 4 m/s 742 mmHg 74%
    07:00 +30°C° 0 mm 4 m/s 742 mmHg 66%
    08:00 +34°C° 0 mm 4 m/s 743 mmHg 58%
    09:00 +36°C° 0 mm 4 m/s 743 mmHg 51%
    10:00 +38°C° 0 mm 3 m/s 743 mmHg 44%
    11:00 +39°C° 0 mm 3 m/s 742 mmHg 36%
    12:00 +41°C° 0 mm 2 m/s 741 mmHg 29%
    13:00 +42°C° 0 mm 2 m/s 741 mmHg 26%
    14:00 +43°C° 0 mm 2 m/s 740 mmHg 22%
    15:00 +43°C° 0 mm 2 m/s 739 mmHg 19%
    16:00 +41°C° 0 mm 2 m/s 740 mmHg 21%
    17:00 +39°C° 0 mm 2 m/s 740 mmHg 24%
    18:00 +37°C° 0 mm 3 m/s 740 mmHg 26%
    19:00 +37°C° 0 mm 3 m/s 741 mmHg 30%
    20:00 +36°C° 0 mm 3 m/s 741 mmHg 34%
    21:00 +35°C° 0 mm 3 m/s 742 mmHg 38%
    22:00 +34°C° 0 mm 3 m/s 742 mmHg 42%
    23:00 +34°C° 0 mm 3 m/s 742 mmHg 45%

    26 Outubro, Sexta-feira

    Tempo Temperatura Precipitação Vento Pressão Humidade
    00:00 +33°C° 0 mm 4 m/s 741 mmHg 49%
    01:00 +33°C° 0 mm 3 m/s 741 mmHg 52%
    02:00 +31°C° 0 mm 3 m/s 741 mmHg 55%
    03:00 +31°C° 0 mm 3 m/s 741 mmHg 57%
    04:00 +30°C° 0 mm 3 m/s 741 mmHg 61%
    05:00 +30°C° 0 mm 3 m/s 741 mmHg 64%
    06:00 +29°C° 0 mm 3 m/s 742 mmHg 67%
    07:00 +33°C° 0 mm 3 m/s 742 mmHg 60%
    08:00 +35°C° 0 mm 4 m/s 743 mmHg 52%
    09:00 +37°C° 0 mm 4 m/s 743 mmHg 45%
    10:00 +39°C° 0 mm 3 m/s 742 mmHg 38%
    11:00 +41°C° 0 mm 2 m/s 742 mmHg 31%
    12:00 +43°C° 0 mm 1 m/s 741 mmHg 24%
    13:00 +43°C° 0 mm 2 m/s 740 mmHg 22%
    14:00 +43°C° 0 mm 2 m/s 740 mmHg 20%
    15:00 +43°C° 0 mm 2 m/s 739 mmHg 18%
    16:00 +42°C° 0 mm 2 m/s 740 mmHg 20%
    17:00 +40°C° 0 mm 2 m/s 740 mmHg 22%
    18:00 +38°C° 0 mm 2 m/s 740 mmHg 24%
    19:00 +38°C° 0 mm 2 m/s 741 mmHg 26%
    20:00 +37°C° 0 mm 2 m/s 741 mmHg 29%
    21:00 +36°C° 0 mm 2 m/s 742 mmHg 31%
    22:00 +35°C° 0 mm 2 m/s 741 mmHg 32%
    23:00 +35°C° 0 mm 2 m/s 741 mmHg 34%

    27 Outubro, Sábado

    Tempo Temperatura Precipitação Vento Pressão Humidade
    00:00 +34°C° 0 mm 2 m/s 741 mmHg 36%
    01:00 +34°C° 0 mm 2 m/s 741 mmHg 37%
    02:00 +32°C° 0 mm 2 m/s 741 mmHg 39%
    03:00 +32°C° 0 mm 2 m/s 740 mmHg 41%
    04:00 +31°C° 0 mm 2 m/s 741 mmHg 43%
    05:00 +31°C° 0 mm 2 m/s 742 mmHg 45%
    06:00 +31°C° 0 mm 2 m/s 742 mmHg 47%
    07:00 +34°C° 0 mm 3 m/s 743 mmHg 45%
    08:00 +36°C° 0 mm 3 m/s 743 mmHg 43%
    09:00 +38°C° 0 mm 4 m/s 743 mmHg 40%
    10:00 +39°C° 0 mm 3 m/s 743 mmHg 36%
    11:00 +42°C° 0 mm 3 m/s 742 mmHg 32%
    12:00 +42°C° 0 mm 2 m/s 741 mmHg 28%
    13:00 +42°C° 0 mm 2 m/s 740 mmHg 26%
    14:00 +43°C° 0 mm 2 m/s 740 mmHg 24%
    15:00 +43°C° 0 mm 2 m/s 739 mmHg 22%
    16:00 +41°C° 0 mm 2 m/s 740 mmHg 24%
    17:00 +40°C° 0 mm 2 m/s 740 mmHg 26%
    18:00 +39°C° 0 mm 2 m/s 740 mmHg 28%
    19:00 +38°C° 0 mm 2 m/s 741 mmHg 30%
    20:00 +37°C° 0 mm 2 m/s 741 mmHg 32%
    21:00 +37°C° 0 mm 2 m/s 741 mmHg 34%
    22:00 +36°C° 0 mm 2 m/s 741 mmHg 37%
    23:00 +35°C° 0 mm 2 m/s 741 mmHg 39%

    28 Outubro, Domingo

    Tempo Temperatura Precipitação Vento Pressão Humidade
    00:00 +34°C° 0 mm 2 m/s 741 mmHg 42%
    01:00 +34°C° 0 mm 3 m/s 741 mmHg 45%
    02:00 +33°C° 0 mm 3 m/s 741 mmHg 47%
    03:00 +33°C° 0 mm 4 m/s 741 mmHg 50%
    04:00 +31°C° 0.2 mm 3 m/s 742 mmHg 56%
    05:00 +30°C° 0.2 mm 3 m/s 743 mmHg 61%
    06:00 +30°C° 0.2 mm 3 m/s 743 mmHg 67%
    07:00 +33°C° 0 mm 3 m/s 743 mmHg 61%
    08:00 +35°C° 0 mm 4 m/s 744 mmHg 55%
    09:00 +37°C° 0 mm 4 m/s 744 mmHg 50%
    10:00 +38°C° 0 mm 3 m/s 743 mmHg 43%
    11:00 +40°C° 0 mm 2 m/s 743 mmHg 36%
    12:00 +42°C° 0 mm 1 m/s 742 mmHg 29%
    13:00 +42°C° 0 mm 1 m/s 741 mmHg 28%
    14:00 +42°C° 0 mm 1 m/s 741 mmHg 27%
    15:00 +42°C° 0 mm 1 m/s 740 mmHg 26%
    16:00 +40°C° 0 mm 1 m/s 740 mmHg 28%
    17:00 +39°C° 0 mm 1 m/s 741 mmHg 30%
    18:00 +37°C° 0 mm 1 m/s 741 mmHg 32%
    19:00 +36°C° 0 mm 1 m/s 741 mmHg 35%
    20:00 +35°C° 0 mm 1 m/s 741 mmHg 37%
    21:00 +34°C° 0 mm 1 m/s 742 mmHg 40%
    22:00 +34°C° 0 mm 2 m/s 741 mmHg 41%
    23:00 +34°C° 0 mm 2 m/s 741 mmHg 43%
    Mostrar mais